DELTA 1 DEB, 39096

Orbit data source: Space-Track

DELTA 1 DEB, 39096 is space debris in SSO originally from a launch on Tue, 06 Nov 1973 UTC launched from the Air Force Western Test Range (AFWTR). Debris objects in space refer to the collection of defunct objects orbiting the Earth. Examples of debris include non-operational satellites, rocket bodies, and fragments generated from explosions, collisions, or faulty payload assembly.

Loading next visibility...
Identifier
39096, 1973-086HJ
Orbit
SSO
Country
Flag of USUS
Related business
Manufacturer
Unknown
Mission
Spacecraft
Bus & Motor
Unknown
Mass
Unknown
Launch date (UTC)
1973-11-06 (52 years ago)
Launch vehicle
Unknown
Launch site
Air Force Western Test Range (AFWTR)
Object type
Payload
Rocket body
Debris
Shape & HBR
Unknown shape, 0.1 m
Radar Cross Section
Small (<0.1 m²)

Expand to show TLE details & history
Last TLE update: 21 hours ago

TLE from 21 hours ago
0 DELTA 1 DEB
1 39096U 73086HJ  25353.47711544  .00000189  00000-0  17440-2 0  9998
2 39096 101.3805 272.2069 0084642 342.1467  17.6630 12.38144023535202
Epoch: 2025-12-19T11:27Z
TLE epoch observation values (Epoch: 2025-12-19T11:27:02.774Z)
Latitude
-0.00004°
Longitude
12.12764°
Altitude
1,453.439 km
Speed
7.164 km/s
True Right ascension
18h 08m 49s
True Declination
0° 00' 00"
Sunlit
Object was in daylight at epoch
Visualization orbit readout
Latitude
Unknown
Longitude
Unknown
Altitude
Unknown
Speed
Unknown
Apparent Right ascension
Unknown
Apparent Declination
Unknown
Sunlit
N/A
Visualization observer readout
Local Sidereal Time
07:44:27
Azimuth
Unknown
Elevation
Unknown
Doppler factor
Unknown
Orbital elements
Apogee altitude
1,578.806 km
Perigee altitude
1,445.238 km
Semi-major axis
7,890.159 km
Eccentricity
0.00846
Inclination
101.3805°
RAAN
272.2069°
Arg. of periapsis
342.1467°
True anomaly
17.96029°
Mean anomaly
17.663°
Eccentric anomaly
17.81134°
Mean motion
3.09681 °/min
Orbital period
116.25 mins
BSTAR
0.001744
Loading maneuver chart data...
Computing Atmospheric mass density...
Loading historical data...
Loading historical data...
Loading historical data...
Loading historical data...
Loading historical data...
Loading historical data...
Loading historical data...

Documentation

Showing up to 5 results
|